Regional Weather Roundup
Issued by NWS Charleston, WV

Home | Current Version | Previous Version | Text Only | Print | Product List | Glossary Off
Versions: 1 2 3 4 5 6 7 8 9 10 11 12 13 14 15 16 17 18 19 20 21 22 23 24 25 26 27 28 29 30 31 32 33 34 35 36 37 38 39 40 41 42 43 44 45 46 47 48 49 50

596
ASUS41 KRLX 031910
RWRRLX
West Virginia Regional Weather Roundup
National Weather Service Charleston WV
300 PM EDT TUE MAY 03 2016

Note: "fair" indicates few or no clouds below 12,000 feet with no
significant weather and/or obstructions to visibility.

WVZ003-032000-
Northern Panhandle of West Virginia

CITY           SKY/WX    TMP DP  RH WIND       PRES   REMARKS
WHEELING       CLOUDY    59  42  53 NW6       29.83F
$$

WVZ009-032000-
Northwest West Virginia

CITY           SKY/WX    TMP DP  RH WIND       PRES   REMARKS
PARKERSBURG    LGT RAIN N/A N/A N/A VRB3      29.88S
$$

WVZ006-032000-
Western West Virginia

CITY           SKY/WX    TMP DP  RH WIND       PRES   REMARKS
HUNTINGTON     LGT RAIN  58  55  90 NW6       29.87S FOG
$$

WVZ015-032000-
West Central West Virginia

CITY           SKY/WX    TMP DP  RH WIND       PRES   REMARKS
CHARLESTON     RAIN      58  54  86 W6        29.85S FOG
$$

WVZ022-031-032000-
North Central West Virginia

CITY           SKY/WX    TMP DP  RH WIND       PRES   REMARKS
CLARKSBURG     CLOUDY    64  52  64 CALM      29.81F
MORGANTOWN     CLOUDY    62  47  57 NE3       29.82F
$$

WVZ025-035-042-045-032000-
Southern West Virginia

CITY           SKY/WX    TMP DP  RH WIND       PRES   REMARKS
BECKLEY        PTSUNNY   61  52  72 W14       29.85S
LOGAN          NOT AVBL
BLUEFIELD      CLOUDY    58  51  78 W10       29.87F
LEWISBURG        N/A     65  53  65 W9        29.82S
$$

WVZ047-032000-
Northern Mountains of West Virginia

CITY           SKY/WX    TMP DP  RH WIND       PRES   REMARKS
ELKINS         LGT RAIN  63  51  65 CALM      29.82F
$$

WVZ052-032000-
Eastern Panhandle of West Virginia

CITY           SKY/WX    TMP DP  RH WIND       PRES   REMARKS
MARTINSBURG    PTSUNNY   70  54  56 N9        29.75F
PETERSBURG     PTSUNNY   76  54  46 W8        29.74F
$$




USA.gov is the U.S. government's official web portal to all federal, state and local government web resources and services.